Wind_Speed
5 6 6 6 6 6 6 5 4 4 4 5 6 6 8 9 10 11 11 11 11 10 10 10 9 9 9 10 9 8 8 7 7 7 7 7 6 6 4 4 5 5 5
6 6 6 6 7 6 6 5 5 4 4 5 6 6 7 8 8 9 9 10 9 10 10 10 9 9 9 9 9 8 8 8 7 7 7 6 6 5 5 4 5 5 6
6 6 7 7 7 6 6 5 4 5 5 5 6 6 6 7 7 8 8 9 8 9 9 9 9 8 9 9 9 9 8 7 7 7 6 6 6 5 5 5 6 6 7
5 6 7 7 7 6 6 5 4 4 5 6 6 6 6 6 7 7 7 8 8 8 8 8 8 8 9 9 9 8 8 7 7 7 6 6 6 5 5 6 6 6 6
5 6 7 7 7 7 6 5 5 4 4 5 6 6 6 6 6 6 6 6 7 7 7 7 7 7 8 8 8 8 8 7 7 6 6 6 6 6 6 6 6 6 7
6 6 6 6 6 7 6 5 5 5 5 5 6 6 6 6 6 6 6 6 6 6 5 5 5 6 6 7 7 8 7 6 7 7 6 6 6 5 6 6 6 6 7
7 6 6 6 7 7 7 6 6 6 6 6 6 6 6 6 5 6 6 5 5 5 4 4 4 5 6 7 7 8 7 6 6 6 6 6 6 5 6 6 6 6 6
6 6 7 7 7 7 6 6 6 6 6 6 6 5 5 5 5 5 4 4 4 4 4 4 4 5 5 6 7 8 8 7 7 6 6 6 6 5 6 7 6 5 5
8 8 7 7 7 7 6 6 6 6 6 6 5 4 4 4 4 4 3 3 3 4 4 4 3 5 6 7 8 8 8 8 7 6 6 6 5 5 6 6 5 5 4
8 8 7 7 7 7 6 6 6 5 5 5 5 4 4 4 4 4 3 3 3 3 3 3 3 4 5 6 8 9 8 8 8 7 7 6 6 6 6 6 5 5 5
10 9 8 7 7 7 5 5 5 5 5 5 5 4 4 4 3 3 3 3 3 2 2 2 2 2 4 6 7 8 8 8 8 8 7 7 6 6 6 5 4 5 5
11 9 9 8 7 6 5 4 4 5 4 4 4 4 3 3 3 3 3 3 3 2 2 2 2 2 3 5 7 8 8 8 9 8 8 7 7 6 6 5 4 5 5
12 11 10 9 8 7 6 5 4 5 5 5 4 4 4 3 3 3 2 2 2 2 2 2 2 2 3 5 6 7 7 9 9 8 7 7 7 6 5 5 5 5 6
12 12 12 11 10 10 9 7 6 6 7 6 5 4 4 3 3 2 2 2 2 2 1 2 2 2 3 4 5 6 7 9 9 8 7 7 7 7 6 5 6 7 7
13 12 12 11 11 11 10 8 7 7 6 5 4 4 3 2 2 1 2 2 1 1 1 2 3 3 3 4 4 5 7 8 8 7 7 8 8 7 7 7 7 7 8
13 13 12 12 11 11 11 10 9 7 7 6 5 5 4 3 2 1 1 1 2 2 2 2 2 3 3 4 5 6 7 6 7 7 8 8 9 8 8 8 9 8 9
12 12 12 11 11 10 10 10 9 8 7 6 5 5 4 3 3 2 1 0 1 2 2 2 2 3 4 5 5 6 6 7 8 8 8 9 9 9 9 9 10 10 10
13 12 12 11 11 10 9 9 9 8 8 6 6 5 4 3 3 3 2 1 1 1 2 2 3 3 4 5 5 6 7 8 8 8 9 9 10 10 10 10 10 11 11
13 12 12 11 11 10 10 9 8 8 8 7 6 6 5 4 3 3 2 2 1 1 2 2 3 4 4 5 5 6 7 8 8 8 8 9 10 10 11 11 11 10 11
13 12 12 11 10 10 10 9 8 8 7 7 7 6 6 5 4 4 3 3 2 2 2 3 4 4 5 6 7 7 8 7 7 8 8 9 9 10 11 12 11 11 12
12 12 12 11 10 10 9 9 8 8 7 6 6 6 5 4 4 4 4 4 3 3 3 4 5 5 6 7 7 7 8 7 8 8 8 9 9 10 10 11 12 12 12
11 11 11 10 10 9 8 8 8 8 8 7 6 6 5 4 4 4 4 4 4 4 4 4 5 6 7 7 7 7 7 8 9 8 9 9 9 9 10 10 11 11 12
9 9 10 9 9 8 7 7 7 7 7 7 7 6 6 5 5 4 5 4 5 5 4 4 5 5 6 6 7 7 7 7 8 9 9 9 10 10 11 11 11 12 12
8 8 8 9 8 7 7 6 6 5 6 6 6 6 6 6 6 5 5 4 5 6 5 5 6 6 7 7 7 7 7 8 8 9 9 9 10 11 12 12 12 12 13
7 7 7 8 7 6 7 6 5 5 5 5 5 5 5 6 6 6 6 6 7 7 6 6 6 6 6 7 7 8 8 9 9 10 10 11 11 12 12 12 13 13 14
7 7 6 7 8 9 9 7 6 6 6 5 5 5 5 6 6 6 6 7 7 7 7 6 6 7 7 7 8 8 9 10 10 10 10 10 11 12 13 13 13 14 14
Wind_Direction
115 116 118 117 112 106 108 109 109 120 134 144 144 142 141 135 130 133 133 134 135 136 136 134 138 143 151 156 154 155 158 155 155 154 147 145 146 141 135 136 137 133 135
109 113 120 121 120 113 111 110 111 115 131 141 146 145 135 131 130 131 138 133 129 130 133 134 134 138 143 152 154 154 158 155 154 151 148 144 143 141 135 135 139 140 135
108 108 118 118 120 118 115 114 118 113 119 132 138 141 134 134 136 135 135 132 132 131 132 134 135 138 144 150 154 156 156 153 152 154 153 153 153 151 146 145 139 139 132
103 109 114 115 113 113 113 110 113 112 121 136 143 141 135 139 140 139 136 138 139 139 135 133 134 133 145 156 161 162 161 157 153 157 158 160 161 157 148 148 140 134 132
96 109 115 112 113 115 111 105 111 118 127 138 143 143 142 143 141 140 142 147 145 144 136 133 140 140 146 154 159 163 165 162 159 162 163 162 163 157 151 148 144 137 135
91 104 109 109 109 114 112 106 111 119 126 134 144 147 150 149 147 147 147 152 155 154 149 142 148 154 157 161 164 166 168 165 163 167 172 169 167 159 155 154 148 141 140
88 98 107 101 106 112 112 109 108 113 119 127 136 144 150 150 152 155 158 156 159 162 162 162 164 169 168 171 170 170 172 173 168 164 166 166 169 168 163 159 157 151 147
88 92 94 96 100 111 111 107 111 111 120 127 131 138 148 156 157 155 156 152 158 168 170 180 187 185 181 181 178 178 181 184 182 175 169 168 170 170 167 164 158 163 166
91 96 93 97 94 98 104 105 105 113 121 123 126 137 146 153 159 159 158 160 164 178 181 182 198 200 191 192 191 189 188 186 185 179 179 177 180 174 167 165 164 169 177
85 91 93 94 91 92 96 100 104 110 119 122 124 131 137 149 163 169 169 167 170 170 173 189 205 205 207 201 195 195 192 191 193 191 191 193 190 184 178 177 181 185 186
86 89 92 95 95 91 93 97 101 109 122 126 130 130 134 148 157 167 173 170 170 171 182 204 209 211 204 195 192 195 197 199 202 202 202 209 205 197 195 199 207 206 203
83 88 88 93 97 92 90 93 101 111 122 125 127 122 133 143 150 160 168 169 173 180 187 195 199 216 185 184 194 195 197 198 206 206 208 215 214 210 209 216 224 215 215
73 77 83 90 88 83 81 90 101 111 117 124 125 110 112 134 146 146 155 162 179 192 202 205 195 210 190 180 188 197 203 205 215 217 220 224 229 228 224 226 235 228 229
74 74 73 75 76 76 76 83 99 110 116 115 104 108 106 117 142 157 167 169 183 204 217 219 216 212 204 195 197 207 215 218 225 225 223 232 239 240 241 237 237 237 239
76 76 75 73 76 78 77 81 95 100 105 109 98 97 93 108 132 177 191 184 193 221 226 234 228 224 218 220 223 219 216 221 227 227 231 237 239 241 245 242 240 242 240
73 74 73 73 71 71 71 72 78 85 89 90 90 88 87 92 86 106 179 211 224 236 241 240 233 237 244 242 238 229 224 230 232 233 235 239 243 246 248 247 247 247 243
72 72 71 70 68 66 66 68 69 72 76 79 81 78 78 80 71 65 75 102 234 234 235 245 260 247 247 247 244 239 240 244 242 246 243 244 246 249 252 251 250 251 245
67 68 68 66 65 64 64 65 67 66 65 67 71 69 73 75 69 60 50 20 299 242 245 254 261 263 259 259 260 258 254 248 249 250 250 250 251 252 253 254 251 247 244
60 61 62 61 60 61 61 61 62 61 60 56 57 58 61 64 62 57 44 15 346 303 270 266 268 268 267 268 266 264 260 256 253 256 258 256 255 252 252 254 248 248 247
58 56 55 57 59 60 58 56 56 57 56 53 50 50 52 53 47 38 27 3 340 319 299 287 283 282 280 276 271 268 264 263 262 270 269 260 258 254 253 254 253 252 252
54 53 52 51 54 58 55 53 52 50 49 47 44 46 45 40 32 30 23 7 355 331 302 290 286 287 288 284 277 274 268 269 271 273 275 270 264 257 256 256 255 255 255
50 49 46 45 46 48 46 46 45 44 43 42 39 39 38 32 22 16 12 5 358 345 321 296 291 286 286 282 279 280 278 276 276 274 274 274 271 265 263 261 255 257 261
40 39 39 37 35 38 39 39 41 40 37 35 35 36 35 29 21 14 12 4 353 346 334 324 307 293 291 288 284 284 281 282 282 284 280 275 273 272 267 269 269 265 264
32 30 30 29 28 30 28 25 30 35 32 27 24 24 25 23 19 9 358 351 342 338 331 323 315 307 303 297 289 282 283 289 287 286 286 282 281 278 271 269 269 266 264
25 17 18 20 21 21 18 15 18 22 20 14 11 11 11 8 4 -0 355 348 341 333 326 319 317 314 309 302 294 287 285 288 286 286 284 280 280 277 274 273 268 265 267
10 11 7 11 13 9 6 5 7 4 2 360 359 358 357 356 354 351 348 342 338 334 329 322 318 314 310 306 299 292 289 289 287 285 283 281 280 278 276 273 271 269 269
Height
5873 5873 5874 5874 5874 5875 5875 5875 5876 5876 5876 5876 5877 5877 5878 5877 5878 5878 5879 5880 5880 5881 5881 5882 5882 5883 5883 5884 5886 5887 5888 5888 5889 5890 5891 5891 5892 5892 5892 5892 5892 5893 5893
5873 5873 5874 5875 5875 5875 5876 5876 5876 5877 5877 5877 5877 5878 5879 5879 5879 5880 5880 5881 5882 5882 5883 5883 5884 5884 5884 5884 5886 5887 5888 5889 5890 5891 5891 5892 5892 5892 5893 5893 5893 5893 5893
5874 5874 5875 5875 5876 5876 5876 5877 5877 5877 5877 5878 5878 5879 5880 5880 5880 5881 5882 5882 5883 5883 5884 5884 5884 5884 5885 5885 5886 5888 5889 5890 5890 5891 5891 5892 5893 5893 5893 5893 5893 5893 5893
5874 5875 5875 5876 5876 5876 5877 5877 5878 5878 5878 5879 5879 5880 5880 5881 5882 5882 5883 5883 5884 5884 5885 5885 5885 5885 5885 5886 5887 5888 5889 5890 5891 5891 5892 5893 5893 5893 5893 5894 5894 5894 5894
5875 5876 5876 5877 5877 5877 5877 5878 5879 5879 5879 5879 5880 5881 5881 5882 5883 5883 5883 5884 5885 5885 5885 5885 5886 5886 5886 5887 5888 5889 5890 5890 5891 5891 5892 5893 5893 5894 5894 5894 5894 5894 5895
5876 5877 5877 5878 5878 5878 5878 5879 5879 5879 5880 5880 5881 5881 5882 5883 5883 5884 5884 5885 5885 5886 5886 5886 5886 5886 5887 5887 5888 5889 5890 5890 5891 5892 5893 5893 5894 5894 5894 5895 5895 5895 5895
5877 5877 5878 5879 5879 5879 5880 5880 5880 5880 5880 5881 5881 5882 5883 5883 5884 5884 5885 5885 5886 5886 5886 5886 5886 5886 5887 5887 5888 5889 5890 5890 5892 5892 5893 5893 5894 5894 5895 5895 5895 5896 5896
5878 5878 5879 5879 5879 5880 5880 5881 5881 5881 5881 5882 5882 5883 5883 5884 5884 5885 5885 5886 5886 5886 5886 5886 5886 5886 5886 5887 5888 5889 5890 5890 5891 5892 5893 5893 5894 5894 5895 5895 5896 5896 5896
5879 5879 5880 5880 5880 5881 5881 5881 5882 5882 5882 5882 5883 5883 5884 5884 5884 5885 5885 5886 5886 5886 5886 5886 5886 5886 5885 5886 5887 5888 5889 5890 5891 5892 5893 5893 5894 5894 5894 5895 5895 5896 5896
5880 5881 5881 5881 5881 5881 5882 5882 5882 5882 5883 5883 5883 5884 5884 5884 5885 5885 5886 5886 5886 5886 5886 5886 5885 5885 5884 5884 5885 5887 5889 5890 5891 5892 5893 5893 5894 5894 5894 5894 5895 5895 5896
5882 5882 5882 5882 5882 5882 5882 5882 5882 5882 5882 5883 5884 5884 5884 5885 5885 5886 5886 5886 5886 5886 5886 5886 5885 5885 5883 5882 5884 5886 5888 5890 5891 5892 5892 5893 5893 5894 5894 5894 5894 5895 5895
5883 5883 5882 5883 5883 5883 5882 5882 5882 5882 5883 5883 5884 5884 5885 5885 5885 5886 5886 5886 5886 5886 5886 5886 5885 5885 5883 5883 5884 5885 5887 5889 5890 5891 5891 5892 5893 5893 5894 5894 5894 5894 5894
5884 5884 5884 5883 5883 5883 5882 5881 5881 5882 5883 5884 5884 5885 5885 5885 5885 5886 5886 5886 5886 5886 5886 5886 5886 5885 5885 5885 5885 5886 5888 5889 5889 5890 5891 5891 5892 5892 5893 5893 5893 5893 5893
5886 5886 5885 5885 5884 5883 5882 5881 5881 5881 5883 5884 5885 5885 5885 5885 5885 5885 5886 5886 5886 5886 5886 5885 5885 5885 5886 5886 5886 5887 5888 5888 5889 5889 5890 5891 5891 5891 5892 5892 5892 5892 5892
5888 5888 5888 5887 5886 5885 5884 5883 5883 5883 5884 5885 5885 5885 5885 5885 5885 5885 5885 5885 5885 5885 5885 5885 5885 5885 5885 5886 5886 5886 5887 5887 5888 5888 5889 5889 5889 5890 5890 5890 5890 5890 5891
5891 5890 5890 5889 5888 5887 5886 5885 5884 5884 5885 5885 5886 5886 5885 5885 5885 5885 5885 5885 5885 5885 5885 5885 5885 5885 5885 5885 5885 5885 5886 5886 5886 5887 5887 5888 5888 5888 5888 5888 5888 5888 5889
5893 5892 5892 5891 5890 5889 5888 5888 5887 5887 5887 5887 5887 5886 5886 5885 5885 5885 5885 5885 5884 5885 5885 5885 5885 5885 5885 5885 5885 5885 5885 5885 5885 5885 5885 5886 5886 5886 5886 5886 5886 5886 5886
5895 5894 5893 5893 5892 5891 5890 5889 5889 5888 5888 5888 5887 5887 5886 5886 5885 5885 5885 5884 5884 5884 5884 5884 5884 5884 5884 5884 5883 5883 5883 5883 5884 5884 5884 5884 5884 5884 5884 5884 5884 5883 5884
5897 5896 5895 5894 5893 5892 5891 5890 5890 5889 5889 5888 5888 5887 5887 5886 5885 5885 5885 5884 5884 5884 5884 5884 5884 5883 5883 5883 5882 5882 5882 5882 5882 5882 5882 5882 5882 5882 5882 5881 5881 5881 5881
5899 5898 5897 5896 5895 5894 5892 5892 5891 5890 5890 5889 5889 5888 5887 5886 5886 5885 5885 5884 5883 5883 5883 5883 5883 5882 5882 5881 5881 5881 5880 5880 5880 5880 5880 5879 5879 5879 5879 5879 5879 5879 5878
5901 5900 5899 5897 5896 5895 5894 5893 5892 5891 5890 5890 5889 5888 5887 5887 5886 5885 5885 5884 5883 5883 5882 5882 5881 5881 5880 5880 5879 5879 5879 5878 5878 5878 5877 5877 5877 5876 5876 5876 5876 5876 5875
5902 5901 5900 5899 5898 5896 5895 5894 5893 5892 5891 5890 5889 5888 5887 5887 5886 5885 5884 5883 5883 5882 5881 5880 5880 5879 5879 5878 5877 5877 5877 5877 5876 5875 5875 5875 5874 5874 5874 5874 5873 5873 5873
5903 5902 5901 5899 5898 5897 5896 5895 5894 5893 5892 5891 5889 5888 5887 5886 5885 5885 5884 5883 5882 5881 5880 5879 5878 5877 5877 5876 5875 5875 5875 5874 5873 5873 5872 5872 5872 5871 5871 5871 5870 5870 5870
5903 5902 5901 5899 5898 5897 5896 5895 5894 5893 5891 5890 5889 5888 5887 5886 5885 5884 5883 5882 5881 5880 5879 5877 5876 5875 5875 5874 5873 5873 5873 5872 5872 5871 5870 5869 5868 5868 5868 5868 5867 5866 5866
5903 5902 5900 5898 5897 5896 5895 5894 5893 5892 5890 5889 5889 5888 5887 5886 5884 5883 5882 5881 5879 5878 5877 5876 5875 5874 5873 5872 5871 5870 5870 5869 5869 5868 5867 5867 5866 5865 5865 5864 5864 5863 5862
5903 5902 5900 5899 5897 5896 5895 5893 5892 5891 5890 5889 5888 5887 5886 5885 5883 5882 5881 5879 5878 5877 5875 5874 5873 5872 5871 5870 5869 5868 5867 5866 5866 5865 5864 5863 5863 5862 5861 5860 5860 5859 5858